星链-5533 (STARLINK-5533 )

导读 | 星芒AI

STARLINK-5533 是 SpaceX 星链计划中的一颗低轨道通信卫星,属于第 11 批部署的星链卫星群。该卫星于 2020 年 11 月 14 日由猎鹰 9 号火箭送入近地轨道,旨在为全球提供高速互联网服务。它运行在约 550 公里的高度,设计寿命约为 5 年。STARLINK-5533 采用先进通信技术,支持宽带连接,是 SpaceX 构建全球卫星互联网网络的重要组成部分。

基本信息
目录编号:
56355
目录名称:
STARLINK-5533
国际标识:
2023-058AQ
轨道中心:
EARTH
卫星名称:
星链-5533
卫星全名:
星链-5533 (STARLINK-5533 )
卫星状态:
在轨 (已飞行969 天)
发射日期:
2023-04-27 UTC
国别 :
美国 (US)
星等 :
--
轨道信息
数据来源 国际轨道数据 AOE轨道数据
星历时间 2025-12-21T05:40:38+0800
15小时前
查看轨道信息
2025-12-21T06:00:00+0800
15小时前
查看轨道信息
半长轴 6941.146km 6941.146km
偏心率 0.0002605 0.0002499
轨道倾角 97.604° 97.607°
近地点辐角 166.066° 169.223°
升交点赤经 353.123° 353.137°
平近点角 194.064° 263.539°
近地点 561.2km 561.274km
远地点 564.818km 564.744km
周期 95.919分钟 95.919分钟
每日圈数 15.012604 15.012605
详细信息
固有亮度:
5
最大亮度:
2.5
卫星平台:
Starlink v1.5
覆盖范围:
全球
运营商:
太空探索技术公司
运营商所在国:
美国
制造商(研发单位):
太空探索技术公司
制造商所在国:
美国
使用方式:
暂无
卫星简介
星链(Starlink)计划是由太空探索技术公司(SpaceX)提出的一个巨型低轨卫星互联网星座项目,计划在2019年至2024年间在太空搭建由约1.2万颗卫星组成的“星链”网络,其中1584颗将部署在地球上空550千米处的近地轨道,并从2020年开始工作。该卫星仍在工作。
2D轨道图
3D轨道图
轨道高度分析图
轨道倾角分析图
轨道综合分析图
查看轨道综合分析图